| time (UTC) | temp F | wind direction | speed MPH | gust MPH | rain 1hr in | rain 24hr in | rain mn in | humidity % | barometer mb |
| 20260506013034 | 55 | 138 | 4.0 | 16.0 | 0.00 | 0.00 | 0.00 | 84 | 1009.5 |
| 20260506011559 | 56 | 133 | 6.0 | 16.0 | 0.00 | 0.00 | 0.00 | 83 | 1009.2 |
| 20260506010031 | 56 | 159 | 8.0 | 18.0 | 0.00 | 0.00 | 0.00 | 83 | 1009.2 |
| 20260506004533 | 55 | 207 | 8.0 | 15.0 | 0.00 | 0.00 | 0.00 | 83 | 1008.5 |
| 20260506003030 | 56 | 169 | 8.0 | 15.0 | 0.00 | 0.00 | 0.00 | 81 | 1008.5 |
| 20260506001530 | 57 | 205 | 8.0 | 15.0 | 0.00 | 0.00 | 0.00 | 81 | 1007.9 |
| 20260506000121 | 58 | 150 | 4.0 | 12.0 | 0.00 | 0.00 | 0.00 | 81 | 1008.1 |
| 20260505234558 | 57 | 175 | 3.0 | 11.0 | 0.00 | 0.00 | 0.00 | 82 | 1008.2 |
| 20260505233059 | 53 | 304 | 5.0 | 23.0 | 0.00 | 0.00 | 0.00 | 87 | 1007.7 |
| 20260505231609 | 53 | 141 | 6.0 | 17.0 | 0.00 | 0.00 | 0.00 | 87 | 1006.3 |
| 20260505230105 | 53 | 166 | 12.0 | 22.0 | 0.00 | 0.00 | 0.00 | 87 | 1006.1 |
| 20260505224552 | 54 | 137 | 10.0 | 22.0 | 0.00 | 0.00 | 0.00 | 86 | 1006.0 |
| 20260505223049 | 54 | 140 | 9.0 | 20.0 | 0.00 | 0.00 | 0.00 | 84 | 1005.7 |
| 20260505221557 | 55 | 195 | 10.0 | 20.0 | 0.00 | 0.00 | 0.00 | 84 | 1005.7 |
| 20260505220048 | 55 | 207 | 8.0 | 21.0 | 0.00 | 0.00 | 0.00 | 84 | 1005.6 |
| 20260505214547 | 55 | 162 | 9.0 | 24.0 | 0.00 | 0.00 | 0.00 | 84 | 1005.6 |
| 20260505213017 | 56 | 162 | 9.0 | 27.0 | 0.00 | 0.00 | 0.00 | 83 | 1005.7 |
| 20260505211525 | 57 | 131 | 11.0 | 26.0 | 0.00 | 0.00 | 0.00 | 82 | 1005.5 |
| 20260505210011 | 57 | 143 | 12.0 | 31.0 | 0.00 | 0.00 | 0.00 | 81 | 1005.7 |
| 20260505204511 | 57 | 166 | 10.0 | 18.0 | 0.00 | 0.00 | 0.00 | 82 | 1005.6 |
| 20260505183031 | 56 | 155 | 8.0 | 20.0 | 0.00 | 0.00 | 0.00 | 85 | 1006.9 |
| 20260505181534 | 55 | 156 | 13.0 | 21.0 | 0.00 | 0.00 | 0.00 | 85 | 1007.1 |
| 20260505180038 | 55 | 204 | 10.0 | 27.0 | 0.00 | 0.00 | 0.00 | 86 | 1007.1 |
| 20260505174529 | 56 | 173 | 8.0 | 20.0 | 0.00 | 0.00 | 0.00 | 85 | 1007.8 |
| 20260505173022 | 55 | 186 | 10.0 | 22.0 | 0.00 | 0.00 | 0.00 | 85 | 1008.1 |
| 20260505171519 | 56 | 149 | 7.0 | 22.0 | 0.00 | 0.00 | 0.00 | 85 | 1007.8 |
| 20260505170020 | 55 | 159 | 7.0 | 18.0 | 0.00 | 0.00 | 0.00 | 86 | 1008.1 |
| 20260505164515 | 55 | 172 | 7.0 | 16.0 | 0.00 | 0.00 | 0.00 | 86 | 1008.2 |
| 20260505163015 | 54 | 191 | 9.0 | 17.0 | 0.00 | 0.00 | 0.00 | 86 | 1008.6 |
| 20260505161509 | 55 | 171 | 7.0 | 16.0 | 0.00 | 0.00 | 0.00 | 86 | 1008.6 |
| 20260505153002 | 52 | 217 | 9.0 | 18.0 | 0.00 | 0.00 | 0.00 | 90 | 1009.5 |
| 20260505151559 | 51 | 169 | 8.0 | 20.0 | 0.00 | 0.00 | 0.00 | 91 | 1009.8 |
| 20260505150111 | 51 | 197 | 10.0 | 18.0 | 0.00 | 0.00 | 0.00 | 90 | 1009.2 |
| 20260505124540 | 51 | 254 | 4.0 | 14.0 | 0.00 | 0.00 | 0.00 | 90 | 1009.1 |
| 20260505123023 | 51 | 240 | 3.0 | 13.0 | 0.00 | 0.00 | 0.00 | 90 | 1009.2 |
| 20260505121529 | 51 | 134 | 4.0 | 12.0 | 0.00 | 0.00 | 0.00 | 89 | 1009.2 |
| 20260505120015 | 50 | 136 | 5.0 | 13.0 | 0.00 | 0.00 | 0.00 | 90 | 1009.5 |
| 20260505114515 | 50 | 153 | 3.0 | 9.0 | 0.00 | 0.00 | 0.00 | 90 | 1009.4 |
| 20260505113014 | 50 | 158 | 4.0 | 11.0 | 0.00 | 0.00 | 0.00 | 91 | 1009.5 |
| 20260505111509 | 49 | 120 | 4.0 | 9.0 | 0.00 | 0.00 | 0.00 | 91 | 1009.5 |
| 20260505101503 | 48 | 146 | 3.0 | 10.0 | 0.00 | 0.00 | 0.00 | 91 | 1009.2 |
| 20260505100008 | 48 | 158 | 3.0 | 6.0 | 0.00 | 0.00 | 0.00 | 91 | 1009.1 |
| 20260505094502 | 48 | 156 | 1.0 | 6.0 | 0.00 | 0.00 | 0.00 | 91 | 1009.1 |
| 20260505093001 | 48 | 241 | 3.0 | 10.0 | 0.00 | 0.00 | 0.00 | 91 | 1009.1 |
| 20260505091617 | 48 | 153 | 3.0 | 9.0 | 0.00 | 0.00 | 0.00 | 91 | 1009.3 |
| 20260505090101 | 48 | 174 | 2.0 | 7.0 | 0.00 | 0.00 | 0.00 | 90 | 1009.3 |
| 20260505084554 | 49 | 131 | 1.0 | 7.0 | 0.00 | 0.00 | 0.00 | 89 | 1009.3 |
| 20260505083054 | 49 | 205 | 4.0 | 12.0 | 0.00 | 0.00 | 0.00 | 89 | 1009.4 |
| 20260505081522 | 49 | 123 | 2.0 | 7.0 | 0.00 | 0.00 | 0.00 | 88 | 1009.3 |
| 20260505080019 | 49 | 176 | 4.0 | 9.0 | 0.00 | 0.00 | 0.00 | 88 | 1009.3 |
| 20260505074515 | 49 | 179 | 3.0 | 10.0 | 0.00 | 0.00 | 0.00 | 87 | 1009.4 |
| 20260505073014 | 50 | 148 | 4.0 | 7.0 | 0.00 | 0.00 | 0.00 | 87 | 1009.2 |
| 20260505071512 | 50 | 238 | 3.0 | 10.0 | 0.00 | 0.00 | 0.00 | 86 | 1009.3 |
| 20260505070012 | 50 | 129 | 2.0 | 9.0 | 0.00 | 0.00 | 0.00 | 85 | 1009.2 |
| 20260505064540 | 51 | 150 | 3.0 | 8.0 | 0.00 | 0.00 | 0.00 | 84 | 1009.1 |
| 20260505063048 | 51 | 195 | 3.0 | 9.0 | 0.00 | 0.00 | 0.00 | 84 | 1009.1 |
| 20260505061540 | 51 | 154 | 4.0 | 8.0 | 0.00 | 0.00 | 0.00 | 83 | 1009.2 |
| 20260505060037 | 51 | 174 | 2.0 | 10.0 | 0.00 | 0.00 | 0.00 | 82 | 1009.2 |
| 20260505054546 | 51 | 147 | 5.0 | 10.0 | 0.00 | 0.00 | 0.00 | 82 | 1009.1 |
| 20260505053039 | 52 | 141 | 4.0 | 9.0 | 0.00 | 0.00 | 0.00 | 82 | 1009.1 |
| 20260505051504 | 52 | 131 | 6.0 | 11.0 | 0.00 | 0.00 | 0.00 | 81 | 1009.0 |
| 20260505041609 | 53 | 126 | 7.0 | 19.0 | 0.00 | 0.00 | 0.00 | 78 | 1008.5 |
| 20260505040103 | 54 | 170 | 7.0 | 13.0 | 0.00 | 0.00 | 0.00 | 76 | 1008.3 |
| 20260505034527 | 54 | 155 | 6.0 | 13.0 | 0.00 | 0.00 | 0.00 | 76 | 1008.4 |
| 20260505033027 | 55 | 143 | 8.0 | 16.0 | 0.00 | 0.00 | 0.00 | 76 | 1008.4 |
| 20260505031530 | 55 | 127 | 5.0 | 14.0 | 0.00 | 0.00 | 0.00 | 74 | 1008.4 |
| 20260505030024 | 55 | 163 | 7.0 | 16.0 | 0.00 | 0.00 | 0.00 | 74 | 1008.3 |
| 20260505024523 | 55 | 270 | 5.0 | 12.0 | 0.00 | 0.00 | 0.00 | 75 | 1008.3 |
| 20260505023023 | 54 | 157 | 4.0 | 13.0 | 0.00 | 0.00 | 0.00 | 77 | 1008.3 |
| 20260505021523 | 53 | 159 | 4.0 | 12.0 | 0.00 | 0.00 | 0.00 | 79 | 1008.2 |
| 20260505020019 | 53 | 191 | 3.0 | 13.0 | 0.00 | 0.00 | 0.00 | 80 | 1008.2 |
| 20260505014522 | 52 | 123 | 6.0 | 14.0 | 0.00 | 0.00 | 0.00 | 82 | 1008.1 |